Tracking 29892 objects as of 21-Nov-2024
HD Live streaming from Space Station
objects crossing your sky now

CZ-3A DEB

Track CZ-3A DEB now!


NORAD ID: 35556
Int'l Code: 2007-003Q
Perigee: 532.5 km
Apogee: 36,308.0 km
Inclination: 25.5 °
Period: 647.5 minutes
Semi major axis: 24791 km
RCS: 0.1852 m2 (medium)
Launch date: February 2, 2007
Source: People's Republic of China (PRC)
Launch site: Xichang Space Center, China (XSC)

Note: This is SATELLITE DEBRIS
Your satellite tracking list
Your tracking list is empty




NASA's NSSDC Master Catalog

Two Line Element Set (TLE):
1 35556U 07003Q   24325.58333926  .00001325  00000-0  11855-1 0  9991
2 35556  25.4527 100.1376 7215350  72.4912 349.5729  2.22410723  2584
Source of the keplerian elements: AFSPC